Andover, NJ

3:25 AM EDT on October 23, 2017 (GMT -0400)
Andover

Weather History for K12N - March, 2014

Change the Weather History Date:

Tuesday, March 11, 2014

  Actual Average (KFWN) Record (KFWN)
Temperature  
Mean Temperature 46 °F -  
Max Temperature 62 °F 45 °F 68 °F (1977)
Min Temperature 30 °F 22 °F 1 °F (1960)
Degree Days  
Heating Degree Days 19    
Moisture  
Dew Point 32 °F    
Average Humidity 68    
Maximum Humidity 92    
Minimum Humidity 30    
Precipitation  
Precipitation 0.00 in - - ()
Sea Level Pressure  
Sea Level Pressure 29.65 in    
Wind  
Wind Speed 2 mph (SW)    
Max Wind Speed 7 mph    
Max Gust Speed -    
Averages and records for this station are not official NWS values.
T = Trace of Precipitation, MM = Missing Value Source: NWS Daily Summary

Daily Weather History Graph

Daily Weather History Graph

Search for Another Location

Airport or City:

Trip Planner

Search our weather history database for the weather conditions in past years. The results will help you decide how hot, cold, wet, or windy it might be!

Date:

Astronomy

Mar. 11, 2014 Rise Set
Actual Time 7:17 AM EDT 7:01 PM EDT
Civil Twilight 6:49 AM EDT 7:28 PM EDT
Nautical Twilight 6:18 AM EDT 8:00 PM EDT
Astronomical Twilight 5:45 AM EDT 8:32 PM EDT
Moon 2:33 PM EDT (3/11) 4:10 AM EDT (3/11)
Length of Visible Light 12h 38m
Length of Day
11h 44m
Waxing Gibbous, 78% of the Moon is Illuminated
Mar 11
Waxing Gibbous
Mar 16
Full
Mar 23
Last Quarter
Mar 30
New
Apr 7
First Quarter

Hourly Weather History & Observations

Time (EDT) Temp. Windchill Dew Point Humidity Pressure Visibility Wind Dir Wind Speed Gust Speed Precip Events Conditions
12:54 AM 32.0 °F - 28.9 °F 88% 29.60 in - Calm Calm - N/A   Unknown
1:54 AM 32.0 °F - 28.9 °F 88% 29.60 in - Calm Calm - N/A   Unknown
2:54 AM 32.0 °F - 28.9 °F 88% 29.59 in - Calm Calm - N/A   Unknown
3:54 AM 30.9 °F - 28.9 °F 92% 29.59 in - Calm Calm - N/A   Unknown
4:54 AM 30.9 °F - 28.9 °F 92% 29.59 in - Calm Calm - N/A   Unknown
5:54 AM 30.0 °F - 28.0 °F 92% 29.62 in - Calm Calm - N/A   Unknown
6:54 AM 33.1 °F 28.7 °F 28.9 °F 85% 29.65 in - South 4.6 mph - N/A   Unknown
7:54 AM 34.0 °F 31.0 °F 28.9 °F 82% 29.66 in - South 3.5 mph - N/A   Unknown
8:54 AM 41.0 °F 39.0 °F 33.1 °F 73% 29.66 in - South 3.5 mph - N/A   Unknown
9:54 AM 48.9 °F - 34.0 °F 56% 29.67 in - Variable 5.8 mph - N/A   Unknown
10:54 AM 54.0 °F - 35.1 °F 49% 29.66 in - North - - N/A   Unknown
11:54 AM 55.9 °F - 35.1 °F 45% 29.65 in - Variable 4.6 mph - N/A   Unknown
12:54 PM 59.0 °F - 33.1 °F 38% 29.64 in - Variable 6.9 mph - N/A   Unknown
1:54 PM 60.1 °F - 32.0 °F 35% 29.63 in - Variable 4.6 mph - N/A   Unknown
2:54 PM 62.1 °F - 30.0 °F 30% 29.62 in - NW 5.8 mph - N/A   Unknown
3:54 PM 59.0 °F - 30.0 °F 33% 29.63 in - North 4.6 mph - N/A   Unknown
4:54 PM 57.9 °F - 34.0 °F 41% 29.64 in - Calm Calm - N/A   Unknown
5:54 PM 57.9 °F - 34.0 °F 41% 29.65 in - SW 3.5 mph - N/A   Unknown
6:54 PM 45.0 °F - 34.0 °F 65% 29.68 in - Calm Calm - N/A   Unknown
7:54 PM 39.0 °F - 33.1 °F 79% 29.69 in - Calm Calm - N/A   Unknown
8:54 PM 39.0 °F - 33.1 °F 79% 29.71 in - Calm Calm - N/A   Unknown
9:54 PM 37.9 °F - 33.1 °F 83% 29.71 in - Calm Calm - N/A   Unknown
10:54 PM 37.9 °F - 33.1 °F 83% 29.71 in - Calm Calm - N/A   Unknown
11:54 PM 37.0 °F - 33.1 °F 86% 29.70 in - Calm Calm - N/A   Unknown